2019-04-06T20:06:03+02:00 GET /webshop/product/oem_power_bank_5600mah_feher/1295224 HTTP/1.1
2019-04-06T20:06:03+02:00 GET /webshop/product/oem_power_bank_12000mah_feher_uel41/751892 HTTP/1.1
2019-04-06T20:06:03+02:00 GET /webshop/product/logilink_mobile_power_bank_12.500_mah/863674 HTTP/1.1
2019-04-06T20:06:03+02:00 GET /webshop/product/esperanza_emp108_power_bank_kinetic_8400mah_ezust/1475629 HTTP/1.1
2019-04-06T20:06:03+02:00 GET /webshop/product/bluestar_st_508_power_bank_fekete/1479365 HTTP/1.1
2019-04-06T20:06:03+02:00 GET /webshop/product/ednet_power_bank_7800_led_display_fekete/1199268 HTTP/1.1
2019-04-06T20:06:03+02:00 GET /webshop/product/vakoss_my2580e_powerbank_5000mah_zold/1396874 HTTP/1.1
2019-04-06T20:06:03+02:00 GET /webshop/product/sunen_powerbank_aa_ec06/725951 HTTP/1.1
2019-04-06T20:06:03+02:00 GET /webshop/product/powerneed_powerbank_2600mah_feher/1005491 HTTP/1.1
2019-04-06T20:06:03+02:00 GET /webshop/product/oem_power_bank_2600mah_feher_uel31/751893 HTTP/1.1
2019-04-06T20:06:03+02:00 GET /shop/termek/oem_power_bank_12000mah_feher_uel41/751892 HTTP/1.1
2019-04-06T20:06:03+02:00 GET /shop/termek/bluestar_st_508_power_bank_fekete/1479365 HTTP/1.1
2019-04-06T20:06:03+02:00 GET /shop/termek/sunen_powerbank_aa_ec06/725951 HTTP/1.1
2019-04-06T20:06:03+02:00 GET /shop/termek/oem_power_bank_5600mah_feher/1295224 HTTP/1.1
2019-04-06T20:06:03+02:00 GET /shop/termek/esperanza_emp108_power_bank_kinetic_8400mah_ezust/1475629 HTTP/1.1
2019-04-06T20:06:03+02:00 GET /shop/termek/logilink_mobile_power_bank_12.500_mah/863674 HTTP/1.1
2019-04-06T20:06:03+02:00 GET /shop/termek/vakoss_my2580e_powerbank_5000mah_zold/1396874 HTTP/1.1
2019-04-06T20:06:03+02:00 GET /shop/termek/oem_power_bank_2600mah_feher_uel31/751893 HTTP/1.1
2019-04-06T20:06:03+02:00 GET /shop/termek/powerneed_powerbank_2600mah_feher/1005491 HTTP/1.1
2019-04-06T20:06:03+02:00 GET /shop/termek/ednet_power_bank_7800_led_display_fekete/1199268 HTTP/1.1
2019-04-06T20:06:04+02:00 GET /shop/termek/bluestar-power-bank-st508-5600mah-fekete/1479365 HTTP/1.1
2019-04-06T20:06:04+02:00 GET /shop/termek/oem-power-bank-5600mah-feher/1295224 HTTP/1.1
2019-04-06T20:06:04+02:00 GET /shop/termek/sunen-powerbank-aa-ec06/725951 HTTP/1.1
2019-04-06T20:06:04+02:00 GET /shop/termek/oem-power-bank-12000mah-feher-uel41/751892 HTTP/1.1
2019-04-06T20:06:04+02:00 GET /shop/termek/esperanza-emp108-power-bank-kinetic-8400mah-ezust/1475629 HTTP/1.1
2019-04-06T20:06:04+02:00 GET /shop/termek/logilink-mobile-power-bank-12500-mah/863674 HTTP/1.1
2019-04-06T20:06:04+02:00 GET /shop/termek/ednet-power-bank-7800-leddisplay-fekete/1199268 HTTP/1.1
2019-04-06T20:06:04+02:00 GET /shop/termek/vakoss-my2580e-powerbank-5000mah-zold/1396874 HTTP/1.1
2019-04-06T20:06:04+02:00 GET /shop/termek/powerneed-powerbank-2600mah-feher/1005491 HTTP/1.1
2019-04-06T20:06:04+02:00 GET /shop/termek/oem-power-bank-2600mah-feher-uel31/751893 HTTP/1.1
2019-04-06T20:06:04+02:00 GET /js/routing?callback=fos.Router.setData HTTP/1.1